Weather History for Bryce Canyon, UT

Change the Weather History Date:

Monday, January 21, 2013

  Actual Average Record
Temperature  
Mean Temperature 20 °F -  
Max Temperature 39 °F 34 °F 52 °F (1981)
Min Temperature 0 °F 9 °F -15 °F (2001)
Degree Days  
Heating Degree Days 46    
Moisture  
Dew Point 2 °F    
Average Humidity 59    
Maximum Humidity 76    
Minimum Humidity 23    
Precipitation  
Precipitation 0.00 in - - ()
Sea Level Pressure  
Sea Level Pressure 30.45 in    
Wind  
Wind Speed 8 mph (West)    
Max Wind Speed 14 mph    
Max Gust Speed -    
Visibility 10 miles    
Events      
Averages and records for this station are not official NWS values.
T = Trace of Precipitation, MM = Missing Value Source: NWS Daily Summary

Daily Weather History Graph

Daily Weather History Graph

Search for Another Location

Airport:

Trip Planner

Search our weather history database for the weather conditions in past years. The results will help you decide how hot, cold, wet, or windy it might be!

Date:

Astronomy

Jan. 21, 2013 Rise Set
Actual Time 7:39 AM MST 5:40 PM MST
Civil Twilight 7:11 AM MST 6:08 PM MST
Nautical Twilight 6:39 AM MST 6:40 PM MST
Astronomical Twilight 6:08 AM MST 7:11 PM MST
Moon 1:23 PM MST (1/21) 3:11 AM MST (1/21)
Length of Visible Light 10h 57m
Length of Day
10h 00m
Waxing Gibbous, 75% of the Moon is Illuminated
Jan 21
Waxing Gibbous
Jan 26
Full
Feb 3
Last Quarter
Feb 10
New
Feb 17
First Quarter

Hourly Weather History & Observations

Time (MST) Temp. Windchill Dew Point Humidity Pressure Visibility Wind Dir Wind Speed Gust Speed Precip Events Conditions
12:53 AM 5.0 °F -10.0 °F -2.9 °F 70% 30.39 in 10.0 mi West 10.4 mph - N/A   Clear
1:53 AM 3.0 °F -10.5 °F -4.0 °F 73% 30.38 in 10.0 mi West 8.1 mph - N/A   Clear
2:53 AM 1.9 °F -13.8 °F -5.1 °F 72% 30.39 in 10.0 mi West 10.4 mph - N/A   Clear
3:53 AM 3.0 °F -12.5 °F -4.0 °F 73% 30.38 in 10.0 mi West 10.4 mph - N/A   Clear
4:53 AM -0.0 °F -15.3 °F -6.0 °F 76% 30.47 in 10.0 mi West 9.2 mph - N/A   Clear
5:53 AM 1.0 °F -14.0 °F -5.1 °F 75% 30.56 in 10.0 mi West 9.2 mph - N/A   Clear
6:53 AM -0.0 °F -18.0 °F -6.0 °F 76% 30.55 in 10.0 mi West 12.7 mph - N/A   Clear
7:53 AM -0.0 °F -18.0 °F -7.1 °F 72% 30.52 in 10.0 mi West 12.7 mph - N/A   Clear
8:53 AM 9.0 °F -5.1 °F -2.0 °F 61% 30.54 in 10.0 mi West 10.4 mph - N/A   Clear
9:53 AM 16.0 °F 7.4 °F 1.9 °F 54% 30.54 in 10.0 mi WNW 5.8 mph - N/A   Clear
10:53 AM 27.0 °F 21.6 °F 6.1 °F 41% 30.50 in 10.0 mi NNW 4.6 mph - N/A   Clear
11:53 AM 32.0 °F 27.5 °F 3.9 °F 31% 30.46 in 10.0 mi NNE 4.6 mph - N/A   Clear
12:53 PM 32.0 °F - 6.1 °F 34% 30.42 in 10.0 mi Calm Calm - N/A   Clear
1:53 PM 37.0 °F - 8.1 °F 30% 30.38 in 10.0 mi Calm Calm - N/A   Clear
2:53 PM 39.9 °F - 5.0 °F 23% 30.37 in 10.0 mi Calm Calm - N/A   Clear
3:53 PM 39.9 °F - 8.1 °F 27% 30.35 in 10.0 mi Calm Calm - N/A   Clear
4:53 PM 30.9 °F - 12.9 °F 47% 30.42 in 10.0 mi Calm Calm - N/A   Clear
5:53 PM 19.9 °F 13.4 °F 9.0 °F 62% 30.47 in 10.0 mi SW 4.6 mph - N/A   Clear
6:53 PM 12.0 °F 4.1 °F 5.0 °F 73% 30.55 in 10.0 mi West 4.6 mph - N/A   Clear
7:53 PM 12.9 °F 3.8 °F 5.0 °F 71% 30.54 in 10.0 mi West 5.8 mph - N/A   Clear
8:53 PM 16.0 °F 1.7 °F 6.1 °F 65% 30.48 in 10.0 mi West 13.8 mph - N/A   Clear
9:53 PM 16.0 °F 2.3 °F 6.1 °F 65% 30.45 in 10.0 mi West 12.7 mph - N/A   Clear
10:53 PM 12.9 °F -0.9 °F 5.0 °F 71% 30.41 in 10.0 mi West 11.5 mph - N/A   Clear
11:53 PM 10.9 °F -3.4 °F 3.9 °F 73% 30.38 in 10.0 mi West 11.5 mph - N/A   Clear